TimeMDT,TemperatureF,Dew PointF,Humidity,Sea Level PressureIn,VisibilityMPH,Wind Direction,Wind SpeedMPH,Gust SpeedMPH,PrecipitationIn,Events,Conditions,WindDirDegrees,DateUTC
12:15 AM,46.6,14.5,28,29.99,10.0,West,5.8,-,N/A,,Clear,270,2013-10-18 06:15:00
12:35 AM,45.5,14.0,28,29.99,10.0,WSW,8.1,-,N/A,,Clear,250,2013-10-18 06:35:00
12:55 AM,49.1,13.5,24,29.99,10.0,West,9.2,-,N/A,,Clear,270,2013-10-18 06:55:00
1:15 AM,49.6,13.1,23,29.99,10.0,West,9.2,-,N/A,,Clear,270,2013-10-18 07:15:00
1:35 AM,50.0,12.9,23,29.99,10.0,West,10.4,-,N/A,,Clear,270,2013-10-18 07:35:00
1:55 AM,49.5,12.6,23,29.99,10.0,West,8.1,-,N/A,,Clear,270,2013-10-18 07:55:00
2:15 AM,47.7,12.6,24,29.99,10.0,West,9.2,-,N/A,,Clear,260,2013-10-18 08:15:00
2:35 AM,47.8,12.2,24,29.99,10.0,West,3.5,-,N/A,,Clear,270,2013-10-18 08:35:00
2:55 AM,43.0,12.6,29,30.00,10.0,NW,6.9,-,N/A,,Clear,310,2013-10-18 08:55:00
3:15 AM,44.2,12.6,28,30.00,10.0,West,10.4,-,N/A,,Clear,280,2013-10-18 09:15:00
3:35 AM,43.3,12.2,28,30.00,10.0,NW,8.1,-,N/A,,Clear,310,2013-10-18 09:35:00
3:55 AM,45.7,12.6,26,30.00,10.0,WNW,9.2,-,N/A,,Clear,290,2013-10-18 09:55:00
4:15 AM,45.0,12.4,27,30.00,10.0,WNW,6.9,-,N/A,,Clear,300,2013-10-18 10:15:00
4:35 AM,44.1,12.2,28,30.00,10.0,West,9.2,-,N/A,,Clear,280,2013-10-18 10:35:00
4:55 AM,42.8,12.6,29,30.00,10.0,WNW,8.1,-,N/A,,Clear,290,2013-10-18 10:55:00
5:15 AM,42.3,12.6,30,30.00,10.0,WNW,8.1,-,N/A,,Clear,290,2013-10-18 11:15:00
5:35 AM,41.9,12.7,31,30.00,10.0,WNW,6.9,-,N/A,,Clear,290,2013-10-18 11:35:00
5:55 AM,41.4,12.7,31,30.01,10.0,WNW,5.8,-,N/A,,Clear,300,2013-10-18 11:55:00
6:15 AM,38.5,12.9,35,30.01,10.0,NW,4.6,-,N/A,,Clear,320,2013-10-18 12:15:00
6:35 AM,39.4,12.9,34,30.02,10.0,NW,6.9,-,N/A,,Clear,310,2013-10-18 12:35:00
6:55 AM,40.1,12.9,33,30.02,10.0,NW,9.2,-,N/A,,Clear,320,2013-10-18 12:55:00
7:15 AM,40.3,13.1,33,30.03,10.0,NW,8.1,-,N/A,,Clear,310,2013-10-18 13:15:00
7:35 AM,42.4,13.3,31,30.03,10.0,WNW,6.9,-,N/A,,Clear,290,2013-10-18 13:35:00
7:55 AM,45.3,14.0,28,30.03,10.0,WNW,4.6,-,N/A,,Clear,300,2013-10-18 13:55:00
8:15 AM,49.5,15.6,26,30.04,10.0,Calm,Calm,-,N/A,,Clear,0,2013-10-18 14:15:00
8:35 AM,53.6,14.5,21,30.05,10.0,Calm,Calm,-,N/A,,Clear,0,2013-10-18 14:35:00
8:55 AM,54.7,14.2,20,30.07,10.0,Calm,Calm,-,N/A,,Clear,0,2013-10-18 14:55:00
9:15 AM,55.8,14.2,19,30.08,10.0,Calm,Calm,-,N/A,,Clear,0,2013-10-18 15:15:00
9:35 AM,57.7,14.9,19,30.08,10.0,Calm,Calm,-,N/A,,Clear,0,2013-10-18 15:35:00
9:55 AM,59.4,16.0,18,30.08,10.0,Calm,Calm,-,N/A,,Clear,0,2013-10-18 15:55:00
10:15 AM,60.8,16.7,18,30.08,10.0,Calm,Calm,-,N/A,,Clear,0,2013-10-18 16:15:00
10:35 AM,62.8,17.6,17,30.08,10.0,Calm,Calm,-,N/A,,Clear,0,2013-10-18 16:35:00
10:55 AM,63.7,19.2,18,30.08,10.0,East,3.5,-,N/A,,Clear,100,2013-10-18 16:55:00
11:15 AM,64.8,18.5,17,30.08,10.0,Calm,Calm,-,N/A,,Clear,0,2013-10-18 17:15:00
11:35 AM,65.7,17.4,16,30.08,10.0,Calm,Calm,-,N/A,,Clear,0,2013-10-18 17:35:00
11:55 AM,66.2,17.2,15,30.07,10.0,SW,3.5,-,N/A,,Clear,230,2013-10-18 17:55:00
12:15 PM,67.1,16.7,14,30.07,10.0,Calm,Calm,-,N/A,,Clear,0,2013-10-18 18:15:00
12:35 PM,68.9,17.1,14,30.06,10.0,Calm,Calm,-,N/A,,Clear,0,2013-10-18 18:35:00
12:55 PM,68.9,16.9,14,30.05,10.0,Calm,Calm,-,N/A,,Clear,0,2013-10-18 18:55:00
1:15 PM,70.0,17.2,13,30.04,10.0,Calm,Calm,-,N/A,,Clear,0,2013-10-18 19:15:00
1:35 PM,69.8,16.9,13,30.03,10.0,Calm,Calm,-,N/A,,Clear,0,2013-10-18 19:35:00
1:55 PM,72.1,17.4,13,30.03,10.0,SSW,4.6,-,N/A,,Clear,210,2013-10-18 19:55:00
2:15 PM,71.2,16.7,13,30.02,10.0,SW,4.6,-,N/A,,Clear,230,2013-10-18 20:15:00
2:35 PM,72.7,17.4,12,30.02,10.0,WSW,4.6,-,N/A,,Clear,240,2013-10-18 20:35:00
2:55 PM,72.3,17.2,12,30.01,10.0,Calm,Calm,-,N/A,,Clear,0,2013-10-18 20:55:00
3:15 PM,73.2,17.4,12,30.02,10.0,ESE,3.5,-,N/A,,Clear,120,2013-10-18 21:15:00
3:35 PM,73.9,17.2,12,30.02,10.0,NNE,6.9,-,N/A,,Clear,30,2013-10-18 21:35:00
3:55 PM,73.2,18.1,12,30.02,10.0,ENE,4.6,-,N/A,,Clear,60,2013-10-18 21:55:00
4:15 PM,73.8,18.5,12,30.02,10.0,NNE,4.6,-,N/A,,Clear,20,2013-10-18 22:15:00
4:35 PM,73.8,18.9,13,30.02,10.0,NNE,9.2,-,N/A,,Clear,30,2013-10-18 22:35:00
4:55 PM,73.2,18.0,12,30.02,10.0,ENE,4.6,-,N/A,,Clear,70,2013-10-18 22:55:00
5:15 PM,72.9,18.0,13,30.03,10.0,ENE,4.6,-,N/A,,Clear,60,2013-10-18 23:15:00
5:35 PM,72.7,18.3,13,30.03,10.0,East,3.5,-,N/A,,Clear,90,2013-10-18 23:35:00
5:55 PM,71.6,18.1,13,30.03,10.0,East,4.6,-,N/A,,Clear,90,2013-10-18 23:55:00
6:15 PM,69.6,18.5,14,30.04,10.0,ESE,3.5,-,N/A,,Clear,120,2013-10-19 00:15:00
6:35 PM,67.8,18.3,15,30.05,10.0,ESE,3.5,-,N/A,,Clear,120,2013-10-19 00:35:00
6:55 PM,66.0,17.4,15,30.05,10.0,SE,4.6,-,N/A,,Clear,140,2013-10-19 00:55:00
7:15 PM,63.5,17.4,17,30.07,10.0,SSE,4.6,-,N/A,,Clear,150,2013-10-19 01:15:00
7:35 PM,62.2,18.1,18,30.07,10.0,ESE,3.5,-,N/A,,Clear,120,2013-10-19 01:35:00
7:55 PM,58.1,18.5,21,30.08,10.0,SSE,4.6,-,N/A,,Clear,160,2013-10-19 01:55:00
8:15 PM,60.4,18.3,20,30.09,10.0,SSE,5.8,-,N/A,,Clear,150,2013-10-19 02:15:00
8:35 PM,60.8,18.5,19,30.09,10.0,SE,5.8,-,N/A,,Clear,130,2013-10-19 02:35:00
8:55 PM,59.7,18.5,20,30.09,10.0,SE,4.6,-,N/A,,Clear,130,2013-10-19 02:55:00
9:15 PM,59.4,18.5,20,30.09,10.0,SE,5.8,-,N/A,,Clear,130,2013-10-19 03:15:00
9:35 PM,59.0,18.1,20,30.10,10.0,SE,5.8,-,N/A,,Clear,140,2013-10-19 03:35:00
9:55 PM,58.5,18.3,21,30.10,10.0,SE,4.6,-,N/A,,Clear,140,2013-10-19 03:55:00
10:15 PM,54.1,18.5,25,30.11,10.0,SSE,4.6,-,N/A,,Clear,160,2013-10-19 04:15:00
10:35 PM,54.0,18.3,25,30.12,10.0,SW,5.8,-,N/A,,Clear,220,2013-10-19 04:35:00
10:55 PM,49.3,19.0,30,30.12,10.0,SE,5.8,-,N/A,,Clear,140,2013-10-19 04:55:00
11:15 PM,53.4,27.0,36,30.12,10.0,SE,6.9,-,N/A,,Clear,140,2013-10-19 05:15:00
11:35 PM,52.5,29.3,41,30.13,10.0,SE,6.9,-,N/A,,Clear,140,2013-10-19 05:35:00
11:55 PM,51.8,30.2,44,30.13,10.0,SSE,6.9,-,N/A,,Clear,150,2013-10-19 05:55:00